KOREASAT 6

Last updated on Tue Oct 15 2024 00:02:39 GMT+0000 (Coordinated Universal Time)

1 37265U 10070B 24288.47202198 -.00000364 00000+0 00000+0 0 9990 2 37265 0.0126 32.3295 0000661 244.4530 32.6648 1.00266182 50643
UTC large
Height (km)
Speed (km/s)
/
Latitude / Longitude
Inclination (degrees)
Orbital Period (minutes)
Azimuth
Elevation
Range (km)
Doppler Factor

Next 0 passes for location: London (51.5072 / 0.1276)

Sorry there are no passes over London.